Theta_e
286 280 277 281 286 287 285 281 279 282 285 281 279 278 279 281 281 280 281 282 283 283 285 286 287 288 288 287 287 287 288 288 289 288 287 288 287 289 289 290 291 291 291 291
281 275 280 285 285 285 284 279 277 281 285 281 279 276 279 280 280 281 281 281 281 283 284 285 286 286 287 286 286 287 287 287 288 288 287 287 287 287 289 290 291 292 292 292
276 278 283 283 280 280 280 279 278 278 282 282 280 276 278 281 282 282 282 283 283 282 282 283 284 284 286 286 286 287 287 287 288 288 289 289 289 288 287 288 289 290 291 291
278 282 282 280 278 278 276 282 282 281 279 273 281 273 276 279 279 281 282 281 282 282 284 283 283 283 284 286 287 287 288 288 288 289 288 287 286 284 286 287 288 288 290 289
274 276 277 277 276 281 278 283 282 281 278 276 275 271 275 281 278 280 281 282 282 283 282 282 283 284 284 286 286 286 287 287 288 288 287 286 285 286 286 286 287 287 288 289
276 280 278 277 281 283 284 281 280 279 278 268 271 271 273 277 280 282 283 283 284 283 283 283 284 284 284 286 287 287 287 287 287 287 287 286 285 285 285 285 285 286 286 287
276 275 278 279 276 281 280 277 270 271 269 269 274 269 276 282 282 284 284 283 283 284 283 283 282 283 283 283 285 287 287 286 287 287 287 286 286 285 285 285 284 284 284 285
275 273 275 279 275 273 275 274 270 264 268 269 273 265 275 282 285 285 285 285 285 284 284 283 282 282 282 283 284 285 286 286 286 286 286 286 286 285 285 285 285 284 284 285
273 272 276 277 278 276 274 273 273 264 257 264 272 274 276 279 280 283 282 284 283 283 283 283 283 283 283 283 284 284 285 286 286 286 286 286 285 285 285 285 285 285 285 286
275 271 275 275 277 276 274 275 271 269 263 262 271 271 272 275 277 280 281 281 283 283 283 284 283 283 283 284 284 284 285 285 286 286 286 286 285 286 285 285 285 285 285 285
276 276 272 274 273 273 272 272 272 271 269 266 265 271 277 278 277 279 280 282 282 283 283 283 283 284 284 284 284 284 284 285 285 286 286 286 286 286 286 285 285 285 285 285
277 277 269 272 274 275 273 273 274 269 267 268 268 268 277 279 279 280 281 283 283 283 284 284 284 284 283 283 283 284 284 285 286 286 286 286 286 285 285 284 285 285 284 285
276 273 267 270 271 272 271 274 275 270 269 265 265 270 279 277 277 279 280 282 283 283 283 283 282 282 282 283 283 284 284 284 285 286 285 285 285 284 284 284 285 285 284 283
279 273 273 272 273 273 269 272 271 267 264 269 270 272 274 275 276 278 279 280 281 282 283 282 281 282 282 283 283 284 284 284 285 285 284 284 284 284 284 284 284 283 283 281
275 267 268 270 270 270 272 273 272 268 271 269 273 272 278 277 277 278 280 280 280 281 281 281 280 281 282 282 283 284 284 284 285 284 283 283 284 284 283 283 283 282 281 280
275 266 266 264 268 271 270 272 273 273 273 272 273 273 280 280 280 279 279 279 279 278 279 280 281 282 281 282 283 284 284 284 284 283 282 283 283 283 282 282 281 280 279 278
269 266 264 264 266 261 260 269 272 273 273 273 269 275 276 276 277 277 277 279 278 279 279 280 280 281 282 282 284 283 283 284 283 282 282 282 282 281 281 280 279 278 276 276
268 267 267 263 260 260 274 272 273 274 276 276 275 276 278 278 279 278 280 279 279 279 280 280 281 281 282 283 283 283 283 282 282 282 281 281 281 280 279 278 277 276 275 274
273 271 263 262 261 269 273 272 271 271 272 277 276 278 278 278 276 277 281 281 281 278 281 282 283 283 283 282 283 282 282 281 280 279 279 279 279 277 276 274 274 274 274 273
270 269 268 260 260 262 273 272 275 275 267 278 278 278 277 277 272 275 281 281 281 280 278 281 283 282 281 280 280 281 280 277 276 278 277 275 273 273 271 272 271 272 273 272
262 264 265 263 262 267 276 274 275 268 273 277 279 279 277 276 278 280 281 281 281 279 278 279 276 278 279 277 279 277 275 276 277 273 271 271 271 269 270 270 271 271 270 270
266 266 263 263 260 264 275 273 272 277 277 278 278 279 279 280 280 280 280 279 280 277 276 277 275 277 279 277 278 276 274 275 271 270 268 267 267 269 270 268 267 268 269 267
269 273 270 271 271 276 278 276 278 278 278 278 278 279 280 279 279 279 279 279 279 279 278 275 275 276 276 274 277 276 274 271 269 267 265 266 267 268 269 267 266 266 267 266
271 276 271 273 275 275 276 279 278 278 277 279 279 280 280 279 279 279 279 279 279 279 279 277 277 275 275 272 275 274 268 269 268 265 265 267 267 267 266 269 269 267 265 265
273 275 272 272 275 277 276 278 279 279 279 279 279 279 279 279 279 279 279 279 279 279 280 279 278 278 277 274 271 267 268 268 267 266 266 267 268 267 266 267 266 268 268 268
274 273 273 272 279 280 278 279 280 278 279 279 278 278 279 279 279 279 279 279 279 279 279 278 277 274 273 270 267 264 263 265 264 267 267 266 265 264 265 265 264 269 270 271
Wind_Speed
14 13 12 12 10 11 14 13 10 7 3 9 10 10 8 7 6 6 5 4 5 6 5 4 5 6 6 6 6 7 8 9 7 6 5 6 4 5 4 6 7 8 8 10
7 12 8 7 10 9 12 11 6 5 4 7 7 6 5 6 6 7 6 4 4 4 4 4 5 5 5 5 5 6 7 7 5 4 3 3 3 4 3 4 6 6 7 7
10 3 4 4 12 9 10 7 4 6 6 6 6 5 8 7 5 6 6 5 3 3 3 4 4 5 4 5 4 5 4 5 5 6 3 3 3 3 3 3 4 4 6 6
8 8 4 8 6 9 5 8 6 5 3 2 1 3 7 9 8 7 8 8 7 6 4 3 4 3 4 2 1 3 4 5 5 5 4 5 3 3 3 3 3 4 6 6
2 5 7 7 3 6 3 5 4 3 4 1 2 2 1 9 8 10 8 8 9 8 5 4 4 3 2 3 1 2 0 1 2 3 3 3 3 2 2 2 5 4 5 5
5 3 4 4 3 7 3 3 3 2 3 3 5 2 4 7 8 7 10 9 9 9 8 5 5 3 2 2 3 3 2 2 1 1 2 2 2 3 3 3 3 3 3 3
4 3 3 3 2 4 4 2 1 4 3 2 4 2 9 7 3 5 11 11 10 9 9 7 5 2 1 1 2 4 5 4 4 4 4 2 4 3 4 4 3 4 3 3
4 1 5 6 4 3 4 2 5 2 2 3 4 5 5 5 6 4 4 10 10 9 8 6 5 4 3 4 4 4 4 5 5 5 5 4 4 3 3 3 3 3 3 4
4 2 3 4 4 2 1 1 2 7 2 4 4 6 2 2 3 4 5 4 8 9 8 8 6 4 4 4 5 4 5 5 6 6 5 6 5 5 5 6 4 3 5 4
2 4 1 3 2 2 2 3 2 3 2 4 4 4 7 7 10 9 9 9 8 8 8 8 7 6 5 6 6 6 6 7 7 7 6 6 7 6 6 5 5 6 5 4
3 3 2 1 6 3 2 2 2 2 3 5 2 7 5 9 11 11 10 9 9 9 8 8 8 8 7 6 6 7 7 7 7 7 7 7 7 6 6 5 6 6 4 5
2 5 3 2 4 3 3 3 4 5 5 1 2 10 2 3 4 8 8 8 8 8 9 8 8 6 6 6 7 8 8 8 8 7 7 7 6 6 6 6 7 5 5 5
8 2 3 5 1 1 5 5 3 4 2 7 7 9 2 3 2 4 4 6 7 6 5 5 4 6 7 7 7 7 8 8 7 7 7 7 7 7 7 7 6 5 5 6
4 2 6 8 5 5 5 5 5 5 4 4 9 6 6 8 9 9 8 8 7 7 8 7 7 7 7 7 7 7 7 7 6 6 7 7 7 7 7 6 5 5 5 6
5 7 3 0 3 1 2 6 13 10 9 9 9 10 16 8 10 11 11 9 9 9 8 8 8 7 7 7 7 7 7 7 6 6 7 8 7 7 6 5 5 5 5 6
4 4 4 3 2 2 5 9 11 17 14 14 17 16 19 13 11 10 9 10 10 9 9 8 8 8 8 8 7 7 7 7 5 7 7 6 6 6 6 5 4 5 5 6
8 8 5 6 1 2 5 18 18 11 10 12 12 19 3 6 5 7 5 8 10 9 9 8 9 8 7 8 7 7 7 5 6 7 7 6 6 6 5 3 4 5 5 5
7 6 3 3 2 5 7 1 2 17 11 17 9 12 8 7 5 5 6 9 8 8 9 8 7 7 8 5 5 5 6 6 7 7 7 5 5 5 2 3 4 4 5 6
2 4 3 6 6 7 3 6 10 11 11 22 19 21 12 4 3 9 9 11 11 9 8 8 7 7 6 7 6 6 7 6 5 7 6 5 4 3 3 3 4 5 6 7
3 3 4 3 6 12 5 4 6 8 7 15 22 24 9 8 4 8 4 8 9 9 6 8 8 6 5 8 4 6 8 5 7 7 6 4 4 2 2 3 4 5 6 8
4 2 9 5 6 10 6 10 7 7 9 5 16 13 10 10 10 6 6 6 8 7 9 5 4 6 9 5 5 7 6 10 7 3 3 3 3 3 3 3 4 5 6 8
14 14 7 3 3 15 11 5 10 7 3 6 7 9 12 14 8 6 7 7 7 6 5 4 5 7 9 4 5 8 8 6 4 4 3 3 3 3 2 2 3 4 7 8
7 11 12 17 13 3 24 8 12 2 6 6 7 7 9 9 8 8 6 7 7 7 6 4 6 7 7 4 6 7 7 6 4 3 3 3 3 3 3 3 4 4 5 5
6 7 5 5 8 9 16 13 4 8 4 4 5 7 8 7 8 6 4 5 6 6 7 4 5 7 9 5 7 8 4 4 5 4 4 4 4 4 3 3 3 4 3 5
9 16 9 5 4 2 9 19 13 9 8 7 6 7 9 7 6 7 7 8 7 7 6 5 7 7 8 5 4 4 5 5 4 4 4 3 3 2 2 3 3 5 4 7
8 10 11 9 15 13 6 19 20 14 16 15 10 8 9 9 9 8 8 7 6 7 5 5 6 5 5 2 4 4 3 4 4 3 2 1 1 1 2 4 5 9 14 16
Wind_Direction
43 66 35 2 20 50 80 90 97 79 10 81 108 132 147 152 148 150 129 133 107 97 95 80 56 56 70 46 39 34 45 36 25 24 18 20 36 25 30 25 17 20 13 12
83 51 350 355 19 59 88 91 86 58 34 94 127 127 146 182 169 161 160 161 118 81 61 60 56 59 82 71 49 40 38 40 31 27 9 21 17 29 32 36 15 18 13 11
74 4 329 31 35 37 30 41 44 120 115 115 155 166 186 203 176 183 188 159 168 114 69 69 65 54 49 57 35 59 44 52 47 28 16 7 17 25 8 18 6 4 7 7
58 348 350 72 64 357 77 322 96 144 268 86 34 305 212 187 209 208 200 181 189 161 121 108 87 68 70 53 52 36 27 45 40 35 24 27 22 11 353 10 343 351 350 356
357 10 11 53 0 312 127 286 21 347 65 351 155 56 76 161 220 215 203 193 183 157 152 126 98 100 147 130 172 267 278 22 72 27 48 33 21 346 313 347 345 346 332 347
107 224 40 18 328 29 171 217 220 279 129 34 226 121 224 188 213 201 182 185 182 166 183 161 148 152 137 162 193 213 260 266 225 337 334 30 351 327 330 317 313 309 306 310
156 54 118 344 294 222 253 266 333 356 3 214 65 18 243 179 130 182 170 178 184 172 177 193 146 147 198 216 244 228 224 257 250 235 257 260 271 268 284 298 301 319 309 319
167 316 5 352 48 344 21 345 141 187 349 284 31 250 250 79 104 88 15 166 167 176 182 176 176 182 224 253 264 273 261 243 255 255 248 246 265 256 264 268 287 289 284 294
133 118 131 48 16 28 17 356 11 100 42 48 209 245 13 131 228 179 200 218 175 175 186 193 182 194 230 243 249 256 274 274 263 267 266 257 256 262 266 278 281 282 292 299
179 92 6 115 257 68 19 149 55 345 54 296 286 272 238 215 214 202 205 205 197 190 195 195 189 204 215 223 229 232 238 245 244 252 252 254 254 254 265 272 275 275 280 300
131 104 168 48 200 152 156 179 54 98 115 179 283 266 216 206 192 193 203 200 199 199 201 202 201 207 209 216 225 234 240 247 252 247 251 247 251 253 262 263 266 264 277 290
166 129 146 161 82 28 325 300 175 128 250 215 128 271 157 123 147 186 203 196 199 196 201 199 200 206 218 232 233 232 236 233 234 236 246 252 252 253 256 257 259 265 276 287
189 232 68 326 17 91 229 189 178 102 67 204 137 262 150 137 217 259 238 198 196 204 217 213 202 229 235 237 240 238 240 240 239 232 239 251 250 253 254 256 265 277 289 289
116 119 175 190 178 130 189 191 149 139 140 201 225 290 228 227 223 225 217 223 233 210 210 223 224 232 230 230 237 244 252 250 251 247 245 242 247 250 251 255 266 275 278 289
139 183 121 57 107 43 240 181 184 200 213 175 239 197 263 201 213 220 208 203 209 223 228 232 233 236 232 233 238 237 242 248 244 250 251 241 243 248 248 255 261 272 282 281
191 188 113 282 45 249 259 245 217 218 244 262 261 283 266 277 248 243 204 191 208 211 227 236 237 232 232 238 240 243 250 250 245 251 251 249 252 251 245 253 272 288 286 285
153 136 122 249 92 69 317 231 204 202 209 209 207 232 182 225 237 248 211 196 210 209 223 229 232 231 235 242 235 238 247 254 255 252 254 250 249 247 241 257 290 285 286 293
148 138 122 175 36 280 237 188 186 217 226 215 230 240 217 207 233 214 181 208 220 213 221 228 230 234 241 247 248 245 263 258 252 253 250 244 259 255 259 288 273 283 290 286
16 131 145 150 202 296 222 196 177 179 248 221 220 243 222 211 322 272 213 204 209 208 219 226 222 224 239 247 239 241 260 248 241 249 244 230 220 231 263 262 278 287 288 283
33 43 126 135 183 221 235 127 113 104 269 237 200 228 185 135 201 246 212 180 206 212 202 213 219 218 228 253 209 237 253 245 249 253 237 175 157 200 231 260 274 279 280 285
144 176 202 189 237 279 224 158 152 123 262 174 185 198 156 180 200 155 154 168 183 197 215 221 181 210 239 237 190 239 251 251 251 204 152 161 173 199 232 257 264 282 283 285
163 163 182 146 207 267 151 92 182 203 161 160 156 170 181 202 185 206 166 178 194 207 230 218 194 233 252 213 183 246 247 260 186 163 159 182 205 230 232 246 266 271 282 279
212 192 177 187 207 163 182 186 207 153 162 186 175 172 171 180 196 202 201 214 217 222 228 218 202 238 259 205 195 237 249 182 165 139 181 194 222 229 238 239 254 266 263 283
253 190 196 106 207 206 203 229 187 210 202 153 165 169 168 177 188 201 218 235 237 239 241 213 222 235 255 212 210 222 173 145 156 174 190 202 212 241 229 253 268 274 276 297
184 157 159 257 287 205 212 221 222 209 204 219 203 186 193 183 211 204 216 227 229 232 241 221 229 236 246 213 208 164 161 151 170 181 191 212 210 221 264 260 255 275 258 280
180 165 181 210 199 209 207 201 206 204 210 211 187 211 220 194 213 207 220 218 219 234 237 235 237 232 248 183 133 122 120 144 163 181 200 117 49 327 301 288 289 292 302 306